Flag for Canada Weather past 2 weeks in Prince George, British Columbia, Canada

Now
32 °F

Clear.


Feels Like: 24 °F
Forecast: 32 / 37 °F
Wind: 9 mph from South

Location: Prince George

Current Time: Dec 21, 2014 at 7:58:21 AM

Latest Report: Dec 21, 2014 at 7:00 AM


Visibility: 9 mi

Pressure: 29.51 "Hg

Humidity: 100%

Dew point: 32 °F

Location of Prince GeorgeLocation

Historic Weather in Prince George — Graph

°F

Prince George temperature yesterday

Maximum temperature yesterday: 41 °F (at 7:00 AM)
Minimum temperature yesterday: 32 °F (at 9:00 PM)
Average temperature yesterday: 37 °F

Past Weeks' High & Low Weather Summary

 TemperatureHumidityPressure
High52 °F (Dec 9, 11:56 AM)100% (Dec 6, 6:00 AM)30.37 "Hg (Dec 6, 6:00 AM)
Low12 °F (Dec 6, 5:00 PM)54% (Dec 9, 11:56 AM)29.13 "Hg (Dec 10, 7:00 PM)
Average32 °F92%29.78 "Hg
* Reported Dec 6 6:00 AM — Dec 21 6:00 AM, Prince George, Weather by CustomWeather, © 2014

Note: Actual official high and low records may vary slightly from our data, if they occured in-between our weather recording intervals... More about our weather records

Advertising

Prince George weather history for previous 24 hours

 ConditionsComfort  
Time TempWeatherWind HumidityBarometerVisibility
6:00 AM
Dec 21
32 °FPassing clouds.12 mph100%29.47 "Hg9 mi
5:00 AM32 °FMostly cloudy.10 mph100%29.44 "Hg9 mi
4:53 AM32 °FMostly cloudy.9 mph100%29.43 "Hg9 mi
4:00 AM32 °FLight snow. Mostly cloudy.7 mph100%29.39 "Hg2 mi
3:56 AM32 °FLight snow. Mostly cloudy.7 mph100%29.39 "Hg2 mi
3:00 AM32 °FLight snow. Dense fog.7 mph100%29.36 "Hg1 mi
2:50 AM32 °FLight snow. Dense fog.6 mph100%29.35 "Hg1 mi
2:00 AM32 °FLight snow. Mostly cloudy.No wind100%29.31 "Hg1 mi
1:04 AM32 °FLight snow. Mostly cloudy.No wind100%29.28 "Hg2 mi
1:00 AM32 °FLight snow. Mostly cloudy.No wind100%29.28 "Hg2 mi
12:59 AM32 °FLight snow. Low clouds.No wind100%29.28 "Hg2 mi
12:03 AM32 °FLight snow. Overcast.No wind100%29.26 "Hg5 mi
11:03 PM
Dec 20
32 °FLight snow. Low clouds.No wind100%29.26 "Hg4 mi
10:01 PM32 °FLight rain. Ice fog.6 mph100%29.27 "Hg6 mi
9:00 PM32 °FIce fog.6 mph100%29.28 "Hg1 mi
8:00 PM34 °FOvercast.6 mph93%29.28 "Hg9 mi
7:00 PM37 °FOvercast.10 mph81%29.28 "Hg9 mi
6:00 PM36 °FMostly cloudy.13 mph87%29.30 "Hg9 mi
5:04 PM36 °FMostly cloudy.13 mph93%29.33 "Hg9 mi
5:00 PM36 °FLight rain. Mostly cloudy.13 mph93%29.33 "Hg9 mi
4:00 PM36 °FLight rain. Overcast.10 mph93%29.34 "Hg9 mi
3:00 PM36 °FLight rain. Overcast.14 mph93%29.36 "Hg9 mi
2:00 PM39 °FLight rain. Overcast.25 mph70%29.35 "Hg9 mi
1:56 PM39 °FLight rain. Mostly cloudy.20 mph70%29.36 "Hg9 mi
1:00 PM41 °FMostly cloudy.21 mph61%29.36 "Hg9 mi
12:00 PM39 °FMostly cloudy.18 mph61%29.38 "Hg9 mi
11:00 AM39 °FOvercast.16 mph61%29.41 "Hg9 mi
10:00 AM41 °FOvercast.18 mph61%29.43 "Hg9 mi
9:00 AM39 °FMore clouds than sun.16 mph70%29.46 "Hg9 mi
8:00 AM37 °FLight rain. Overcast.17 mph75%29.48 "Hg9 mi
7:00 AM41 °FOvercast.10 mph57%29.49 "Hg9 mi
Weather by CustomWeather, © 2014

See weather overviewHow to use our weather pages